DAL1177 KSLC-KSAN

Flight info

Callsign DAL1177
Flight time 1h 32m
Altitude 36000
Route WINEN LAKRR Q73 LVELL LUCKI1
Aircraft B739/M-SDE2E3FGHIRWXY/LB1

Departure

Time 2026-04-23 04:16
Airport Salt Lake City International Airport (KSLC)

Arrival

Time 2026-04-23 05:48
Airport San Diego International Airport (KSAN)
Time Latitude Longitude Altitude Speed Heading
2026-04-23 03:56 40.78972 -111.98367 4229 ft 0 kts 175°
2026-04-23 04:05 40.78976 -111.98367 4230 ft 2 kts 175°
2026-04-23 04:06 40.78995 -111.98369 4230 ft 3 kts 181°
2026-04-23 04:06 40.79015 -111.98367 4230 ft 3 kts 191°
2026-04-23 04:06 40.79034 -111.98360 4230 ft 3 kts 209°
2026-04-23 04:06 40.79048 -111.98345 4230 ft 3 kts 248°
2026-04-23 04:07 40.79051 -111.98335 4230 ft 0 kts 266°
2026-04-23 04:10 40.79050 -111.98356 4229 ft 7 kts 266°
2026-04-23 04:10 40.79044 -111.98455 4230 ft 15 kts 266°
2026-04-23 04:11 40.79041 -111.98567 4230 ft 13 kts 279°
2026-04-23 04:11 40.79124 -111.98628 4230 ft 15 kts 328°
2026-04-23 04:11 40.79143 -111.98786 4229 ft 22 kts 265°
2026-04-23 04:11 40.79127 -111.99016 4230 ft 28 kts 265°
2026-04-23 04:12 40.79110 -111.99252 4230 ft 24 kts 264°
2026-04-23 04:12 40.79096 -111.99425 4230 ft 18 kts 264°
2026-04-23 04:12 40.78996 -111.99505 4230 ft 23 kts 176°
2026-04-23 04:12 40.78879 -111.99491 4231 ft 28 kts 175°
2026-04-23 04:13 40.78667 -111.99467 4229 ft 34 kts 175°
2026-04-23 04:13 40.78427 -111.99439 4230 ft 29 kts 175°
2026-04-23 04:13 40.78212 -111.99413 4230 ft 27 kts 175°
2026-04-23 04:13 40.78005 -111.99433 4276 ft 33 kts 185°
2026-04-23 04:14 40.77860 -111.99427 4276 ft 32 kts 175°
2026-04-23 04:14 40.77681 -111.99407 4278 ft 20 kts 175°
2026-04-23 04:14 40.77583 -111.99396 4277 ft 11 kts 179°
2026-04-23 04:14 40.77520 -111.99446 4278 ft 11 kts 245°
2026-04-23 04:15 40.77517 -111.99529 4278 ft 8 kts 289°
2026-04-23 04:15 40.77580 -111.99558 4280 ft 14 kts 354°
2026-04-23 04:15 40.78302 -111.99641 4228 ft 111 kts 355°
2026-04-23 04:16 40.79254 -111.99753 4230 ft 161 kts 355°
2026-04-23 04:16 40.80480 -111.99912 4448 ft 184 kts 353°
2026-04-23 04:16 40.81695 -112.00342 5211 ft 181 kts 328°
2026-04-23 04:16 40.82538 -112.01582 5666 ft 189 kts 289°
2026-04-23 04:17 40.82685 -112.03304 6060 ft 201 kts 270°
2026-04-23 04:17 40.82703 -112.05262 6313 ft 224 kts 271°
2026-04-23 04:17 40.82738 -112.07366 6876 ft 234 kts 271°
2026-04-23 04:17 40.82738 -112.09603 7156 ft 261 kts 262°
2026-04-23 04:18 40.82074 -112.11924 7720 ft 278 kts 239°
2026-04-23 04:18 40.80987 -112.13983 8648 ft 276 kts 239°
2026-04-23 04:18 40.79969 -112.16123 9652 ft 273 kts 242°
2026-04-23 04:18 40.79016 -112.18338 10366 ft 281 kts 244°
2026-04-23 04:19 40.78070 -112.20679 10837 ft 297 kts 244°
2026-04-23 04:19 40.77087 -112.23128 11480 ft 304 kts 245°
2026-04-23 04:19 40.75999 -112.25530 12325 ft 309 kts 232°
2026-04-23 04:19 40.74242 -112.27277 12936 ft 326 kts 208°
2026-04-23 04:20 40.72040 -112.28101 13776 ft 335 kts 192°
2026-04-23 04:20 40.69719 -112.28510 14528 ft 336 kts 192°
2026-04-23 04:20 40.67407 -112.28935 15330 ft 336 kts 193°
2026-04-23 04:20 40.65120 -112.29415 15996 ft 341 kts 193°
2026-04-23 04:21 40.62746 -112.29910 16497 ft 350 kts 192°
2026-04-23 04:21 40.60331 -112.30392 17215 ft 352 kts 192°
2026-04-23 04:21 40.57879 -112.30883 17734 ft 361 kts 192°
2026-04-23 04:21 40.55384 -112.31453 18344 ft 364 kts 197°
2026-04-23 04:22 40.52944 -112.32350 18958 ft 365 kts 201°
2026-04-23 04:22 40.50521 -112.33424 19419 ft 373 kts 202°
2026-04-23 04:22 40.48049 -112.34541 20020 ft 374 kts 202°
2026-04-23 04:22 40.45571 -112.35640 20641 ft 378 kts 200°
2026-04-23 04:23 40.43043 -112.36695 21208 ft 382 kts 199°
2026-04-23 04:23 40.40488 -112.37731 21779 ft 386 kts 199°
2026-04-23 04:23 40.37906 -112.38774 22339 ft 390 kts 198°
2026-04-23 04:23 40.35310 -112.39825 23008 ft 391 kts 198°
2026-04-23 04:24 40.32711 -112.40880 23629 ft 393 kts 198°
2026-04-23 04:24 40.30133 -112.41926 24194 ft 392 kts 199°
2026-04-23 04:24 40.27524 -112.42984 24814 ft 390 kts 200°
2026-04-23 04:24 40.24935 -112.44034 25392 ft 390 kts 201°
2026-04-23 04:25 40.22341 -112.45092 25912 ft 391 kts 200°
2026-04-23 04:25 40.19729 -112.46155 26324 ft 395 kts 200°
2026-04-23 04:25 40.17142 -112.47415 26663 ft 398 kts 209°
2026-04-23 04:25 40.14699 -112.49095 27215 ft 395 kts 213°
2026-04-23 04:26 40.12329 -112.50798 28189 ft 384 kts 214°
2026-04-23 04:26 40.10001 -112.52480 28878 ft 381 kts 214°
2026-04-23 04:26 40.07670 -112.54157 29297 ft 384 kts 214°
2026-04-23 04:26 40.05317 -112.55839 29670 ft 387 kts 214°
2026-04-23 04:27 40.02938 -112.57524 30068 ft 389 kts 214°
2026-04-23 04:27 40.00582 -112.59185 30460 ft 390 kts 214°
2026-04-23 04:27 39.98183 -112.60871 30769 ft 393 kts 214°
2026-04-23 04:28 39.93318 -112.64281 31353 ft 399 kts 214°
2026-04-23 04:28 39.90868 -112.65994 31675 ft 398 kts 215°
2026-04-23 04:28 39.88438 -112.67689 32185 ft 395 kts 215°
2026-04-23 04:28 39.86001 -112.69391 32445 ft 399 kts 215°
2026-04-23 04:29 39.83543 -112.71109 32609 ft 404 kts 214°
2026-04-23 04:29 39.81083 -112.72826 32816 ft 407 kts 214°
2026-04-23 04:29 39.78580 -112.74571 33063 ft 409 kts 214°
2026-04-23 04:29 39.76065 -112.76321 33343 ft 411 kts 214°
2026-04-23 04:30 39.73541 -112.78076 33583 ft 413 kts 214°
2026-04-23 04:30 39.71001 -112.79842 33828 ft 414 kts 214°
2026-04-23 04:30 39.68427 -112.81587 34008 ft 419 kts 211°
2026-04-23 04:30 39.65682 -112.82948 34278 ft 425 kts 204°
2026-04-23 04:31 39.62862 -112.84046 34662 ft 422 kts 204°
2026-04-23 04:31 39.60046 -112.85140 34887 ft 423 kts 204°
2026-04-23 04:31 39.57252 -112.86234 35058 ft 425 kts 204°
2026-04-23 04:31 39.54417 -112.87349 35284 ft 425 kts 204°
2026-04-23 04:32 39.51587 -112.88467 35538 ft 425 kts 204°
2026-04-23 04:32 39.48758 -112.89588 35773 ft 425 kts 204°
2026-04-23 04:32 39.45920 -112.90714 35971 ft 426 kts 204°
2026-04-23 04:32 39.43078 -112.91843 35966 ft 428 kts 204°
2026-04-23 04:33 39.37403 -112.94092 35970 ft 424 kts 204°
2026-04-23 04:33 39.31779 -112.96316 35973 ft 421 kts 205°
2026-04-23 04:34 39.26226 -112.98511 35977 ft 419 kts 205°
2026-04-23 04:34 39.20651 -113.00712 35963 ft 418 kts 205°
2026-04-23 04:35 39.15097 -113.02901 35967 ft 417 kts 205°
2026-04-23 04:35 39.09551 -113.05083 35974 ft 417 kts 205°
2026-04-23 04:36 39.04032 -113.07250 35968 ft 417 kts 205°
2026-04-23 04:36 38.98475 -113.09429 35927 ft 418 kts 205°
2026-04-23 04:37 38.92912 -113.11607 35949 ft 417 kts 205°
2026-04-23 04:37 38.87352 -113.13779 35959 ft 418 kts 205°
2026-04-23 04:38 38.81780 -113.15952 35963 ft 418 kts 205°
2026-04-23 04:38 38.76201 -113.18124 35959 ft 419 kts 205°
2026-04-23 04:39 38.70668 -113.20274 35949 ft 418 kts 206°
2026-04-23 04:39 38.65104 -113.22433 35976 ft 417 kts 206°
2026-04-23 04:40 38.59545 -113.24588 35986 ft 417 kts 206°
2026-04-23 04:40 38.53992 -113.26736 35996 ft 416 kts 206°
2026-04-23 04:41 38.48457 -113.28871 35991 ft 415 kts 207°
2026-04-23 04:41 38.42946 -113.30999 35990 ft 415 kts 207°
2026-04-23 04:42 38.37416 -113.33130 35982 ft 415 kts 207°
2026-04-23 04:42 38.31885 -113.35257 35971 ft 414 kts 207°
2026-04-23 04:43 38.26357 -113.37378 35957 ft 414 kts 207°
2026-04-23 04:43 38.20845 -113.39489 35947 ft 413 kts 207°
2026-04-23 04:44 38.15378 -113.41582 35942 ft 413 kts 207°
2026-04-23 04:44 38.09875 -113.43686 35936 ft 412 kts 206°
2026-04-23 04:45 38.04376 -113.45783 35910 ft 412 kts 207°
2026-04-23 04:45 37.98882 -113.47877 35935 ft 412 kts 207°
2026-04-23 04:46 37.93382 -113.49967 35944 ft 413 kts 207°
2026-04-23 04:46 37.87947 -113.52233 35944 ft 410 kts 209°
2026-04-23 04:47 37.82593 -113.54610 35941 ft 411 kts 210°
2026-04-23 04:47 37.77189 -113.56995 35933 ft 411 kts 210°
2026-04-23 04:48 37.71773 -113.59360 35935 ft 412 kts 210°
2026-04-23 04:48 37.66347 -113.61715 35933 ft 412 kts 210°
2026-04-23 04:49 37.60914 -113.64067 35937 ft 413 kts 210°
2026-04-23 04:49 37.55472 -113.66418 35899 ft 413 kts 210°
2026-04-23 04:50 37.50062 -113.68751 35923 ft 413 kts 210°
2026-04-23 04:50 37.44616 -113.71097 35919 ft 413 kts 210°
2026-04-23 04:51 37.39183 -113.73433 35916 ft 412 kts 210°
2026-04-23 04:51 37.33761 -113.75761 35896 ft 411 kts 210°
2026-04-23 04:52 37.28349 -113.78081 35882 ft 410 kts 210°
2026-04-23 04:52 37.22945 -113.80396 35898 ft 410 kts 210°
2026-04-23 04:53 37.17540 -113.82700 35881 ft 411 kts 209°
2026-04-23 04:53 37.12162 -113.84939 35892 ft 409 kts 210°
2026-04-23 04:54 37.06783 -113.87268 35882 ft 409 kts 210°
2026-04-23 04:54 37.01392 -113.89586 35884 ft 410 kts 210°
2026-04-23 04:55 36.95978 -113.91894 35873 ft 412 kts 210°
2026-04-23 04:55 36.90543 -113.94201 35868 ft 413 kts 210°
2026-04-23 04:56 36.85099 -113.96506 35861 ft 413 kts 210°
2026-04-23 04:56 36.79645 -113.98812 35856 ft 413 kts 210°
2026-04-23 04:57 36.74224 -114.01102 35850 ft 413 kts 210°
2026-04-23 04:57 36.68773 -114.03400 35844 ft 412 kts 210°
2026-04-23 04:58 36.63337 -114.05689 35856 ft 412 kts 210°
2026-04-23 04:58 36.57935 -114.07964 35802 ft 412 kts 210°
2026-04-23 04:59 36.52501 -114.10239 35839 ft 412 kts 210°
2026-04-23 04:59 36.47072 -114.12518 35833 ft 411 kts 210°
2026-04-23 05:00 36.41659 -114.14785 35824 ft 409 kts 210°
2026-04-23 05:00 36.37177 -114.16659 35817 ft 408 kts 210°
2026-04-23 05:01 36.31801 -114.18908 35810 ft 407 kts 210°
2026-04-23 05:01 36.26427 -114.21145 35818 ft 407 kts 210°
2026-04-23 05:02 36.21090 -114.23369 35832 ft 408 kts 210°
2026-04-23 05:02 36.15692 -114.25615 35817 ft 409 kts 210°
2026-04-23 05:03 36.10440 -114.28160 35820 ft 396 kts 220°
2026-04-23 05:03 36.06044 -114.32060 35820 ft 382 kts 231°
2026-04-23 05:04 36.02488 -114.36858 35828 ft 379 kts 236°
2026-04-23 05:04 35.98983 -114.41766 35827 ft 382 kts 236°
2026-04-23 05:05 35.95460 -114.46669 35845 ft 385 kts 236°
2026-04-23 05:05 35.91875 -114.51630 35852 ft 388 kts 235°
2026-04-23 05:06 35.88275 -114.56598 35867 ft 389 kts 235°
2026-04-23 05:06 35.84667 -114.61567 35831 ft 388 kts 235°
2026-04-23 05:07 35.81065 -114.66524 35891 ft 387 kts 235°
2026-04-23 05:07 35.77473 -114.71459 35889 ft 386 kts 235°
2026-04-23 05:08 35.73887 -114.76380 35900 ft 385 kts 235°
2026-04-23 05:08 35.70314 -114.81277 35953 ft 382 kts 236°
2026-04-23 05:09 35.66790 -114.86099 35962 ft 381 kts 235°
2026-04-23 05:09 35.63253 -114.90947 35954 ft 380 kts 235°
2026-04-23 05:10 35.59724 -114.95790 35941 ft 380 kts 235°
2026-04-23 05:10 35.56194 -115.00626 35954 ft 380 kts 235°
2026-04-23 05:11 35.52532 -115.05338 35964 ft 388 kts 227°
2026-04-23 05:11 35.47966 -115.09012 35968 ft 402 kts 217°
2026-04-23 05:12 35.42639 -115.11479 35971 ft 412 kts 209°
2026-04-23 05:12 35.37185 -115.13697 35977 ft 413 kts 209°
2026-04-23 05:13 35.31741 -115.15938 35994 ft 412 kts 209°
2026-04-23 05:14 35.23570 -115.19331 35991 ft 413 kts 210°
2026-04-23 05:14 35.18152 -115.21579 35982 ft 413 kts 209°
2026-04-23 05:15 35.12677 -115.23751 35976 ft 419 kts 205°
2026-04-23 05:15 35.06946 -115.25322 35983 ft 422 kts 203°
2026-04-23 05:16 35.01188 -115.26814 35978 ft 422 kts 203°
2026-04-23 05:16 34.95454 -115.28346 35936 ft 422 kts 204°
2026-04-23 05:17 34.89765 -115.29890 35960 ft 420 kts 204°
2026-04-23 05:17 34.84059 -115.31440 35961 ft 420 kts 204°
2026-04-23 05:18 34.78361 -115.32991 35937 ft 418 kts 205°
2026-04-23 05:18 34.72855 -115.35090 35945 ft 410 kts 210°
2026-04-23 05:19 34.67493 -115.37356 35939 ft 410 kts 210°
2026-04-23 05:19 34.62078 -115.39604 35943 ft 412 kts 210°
2026-04-23 05:20 34.56643 -115.41822 35942 ft 413 kts 209°
2026-04-23 05:20 34.51173 -115.44040 35934 ft 414 kts 209°
2026-04-23 05:21 34.45701 -115.46258 35905 ft 415 kts 209°
2026-04-23 05:21 34.40218 -115.48476 35915 ft 415 kts 209°
2026-04-23 05:22 34.34987 -115.51064 35922 ft 398 kts 221°
2026-04-23 05:22 34.30303 -115.54606 35930 ft 397 kts 221°
2026-04-23 05:23 34.25596 -115.58111 35939 ft 397 kts 221°
2026-04-23 05:23 34.20860 -115.61576 35931 ft 401 kts 218°
2026-04-23 05:24 34.15619 -115.64216 35956 ft 411 kts 212°
2026-04-23 05:24 34.10252 -115.66622 35950 ft 410 kts 212°
2026-04-23 05:25 34.04932 -115.69084 35946 ft 408 kts 213°
2026-04-23 05:25 33.99678 -115.71558 35955 ft 407 kts 213°
2026-04-23 05:25 33.97022 -115.72815 35502 ft 414 kts 213°
2026-04-23 05:26 33.94337 -115.74081 34894 ft 415 kts 213°
2026-04-23 05:26 33.91636 -115.75351 34182 ft 415 kts 214°
2026-04-23 05:26 33.88977 -115.76636 33661 ft 408 kts 214°
2026-04-23 05:26 33.86358 -115.77924 33068 ft 404 kts 214°
2026-04-23 05:27 33.83769 -115.79203 32518 ft 399 kts 214°
2026-04-23 05:27 33.81251 -115.80443 32005 ft 394 kts 214°
2026-04-23 05:27 33.78726 -115.81681 31504 ft 390 kts 213°
2026-04-23 05:27 33.76220 -115.82902 31003 ft 387 kts 212°
2026-04-23 05:28 33.73720 -115.84085 30500 ft 384 kts 211°
2026-04-23 05:28 33.71233 -115.85243 30004 ft 382 kts 211°
2026-04-23 05:28 33.68762 -115.86391 29441 ft 379 kts 211°
2026-04-23 05:28 33.66311 -115.87532 28908 ft 376 kts 211°
2026-04-23 05:29 33.63891 -115.88660 28403 ft 371 kts 211°
2026-04-23 05:29 33.61496 -115.89778 27946 ft 367 kts 211°
2026-04-23 05:29 33.59121 -115.90889 27479 ft 364 kts 211°
2026-04-23 05:29 33.56768 -115.91989 27005 ft 362 kts 211°
2026-04-23 05:30 33.54428 -115.93081 26533 ft 359 kts 211°
2026-04-23 05:30 33.52255 -115.94420 26219 ft 343 kts 221°
2026-04-23 05:30 33.50367 -115.96142 25973 ft 344 kts 227°
2026-04-23 05:30 33.48489 -115.98000 25748 ft 355 kts 227°
2026-04-23 05:31 33.46597 -115.99868 25515 ft 357 kts 227°
2026-04-23 05:31 33.44678 -116.01750 25192 ft 355 kts 226°
2026-04-23 05:31 33.42770 -116.03613 24750 ft 352 kts 226°
2026-04-23 05:31 33.40875 -116.05457 24289 ft 350 kts 226°
2026-04-23 05:32 33.38990 -116.07289 23795 ft 347 kts 226°
2026-04-23 05:32 33.37122 -116.09110 23264 ft 346 kts 225°
2026-04-23 05:32 33.35238 -116.10886 22765 ft 343 kts 225°
2026-04-23 05:32 33.33389 -116.12674 22274 ft 340 kts 225°
2026-04-23 05:33 33.31565 -116.14455 21806 ft 336 kts 225°
2026-04-23 05:33 33.29760 -116.16220 21368 ft 334 kts 225°
2026-04-23 05:33 33.27962 -116.17969 20905 ft 332 kts 225°
2026-04-23 05:33 33.26196 -116.19685 20456 ft 330 kts 225°
2026-04-23 05:34 33.24413 -116.21415 20003 ft 328 kts 225°
2026-04-23 05:34 33.22640 -116.23131 19568 ft 327 kts 225°
2026-04-23 05:34 33.20875 -116.24839 19123 ft 326 kts 225°
2026-04-23 05:34 33.19111 -116.26543 18666 ft 326 kts 224°
2026-04-23 05:35 33.17350 -116.28243 18217 ft 325 kts 224°
2026-04-23 05:35 33.15596 -116.29937 17721 ft 324 kts 224°
2026-04-23 05:35 33.13845 -116.31626 17259 ft 323 kts 224°
2026-04-23 05:35 33.12103 -116.33305 16816 ft 322 kts 224°
2026-04-23 05:36 33.10363 -116.34980 16369 ft 320 kts 224°
2026-04-23 05:36 33.08620 -116.36660 15798 ft 323 kts 224°
2026-04-23 05:36 33.06873 -116.38345 15349 ft 323 kts 224°
2026-04-23 05:36 33.05142 -116.40010 14877 ft 323 kts 224°
2026-04-23 05:37 33.03390 -116.41693 14409 ft 324 kts 224°
2026-04-23 05:37 33.01636 -116.43380 13942 ft 323 kts 224°
2026-04-23 05:37 32.99889 -116.45068 13519 ft 322 kts 225°
2026-04-23 05:37 32.98196 -116.46762 13206 ft 315 kts 226°
2026-04-23 05:38 32.96536 -116.48446 12742 ft 312 kts 226°
2026-04-23 05:38 32.94902 -116.50136 12262 ft 310 kts 225°
2026-04-23 05:38 32.93260 -116.51796 11922 ft 309 kts 225°
2026-04-23 05:38 32.91616 -116.53439 11547 ft 307 kts 226°
2026-04-23 05:39 32.89985 -116.55084 11149 ft 307 kts 226°
2026-04-23 05:39 32.88385 -116.56696 10924 ft 301 kts 225°
2026-04-23 05:39 32.86811 -116.58270 10874 ft 289 kts 225°
2026-04-23 05:39 32.85305 -116.59777 10804 ft 278 kts 225°
2026-04-23 05:40 32.83858 -116.61241 10689 ft 269 kts 226°
2026-04-23 05:40 32.82440 -116.62677 10440 ft 267 kts 226°
2026-04-23 05:40 32.81024 -116.64105 10098 ft 267 kts 226°
2026-04-23 05:40 32.79607 -116.65532 9758 ft 267 kts 226°
2026-04-23 05:41 32.78192 -116.66956 9445 ft 265 kts 225°
2026-04-23 05:41 32.76963 -116.68544 9090 ft 258 kts 244°
2026-04-23 05:41 32.76108 -116.70401 8791 ft 255 kts 245°
2026-04-23 05:41 32.75255 -116.72249 8462 ft 255 kts 245°
2026-04-23 05:42 32.74393 -116.74092 8172 ft 254 kts 245°
2026-04-23 05:42 32.73533 -116.75922 7861 ft 254 kts 244°
2026-04-23 05:42 32.72678 -116.77738 7482 ft 256 kts 244°
2026-04-23 05:42 32.71799 -116.79591 7111 ft 259 kts 244°
2026-04-23 05:43 32.70911 -116.81461 6734 ft 261 kts 244°
2026-04-23 05:43 32.70158 -116.83418 6341 ft 260 kts 252°
2026-04-23 05:43 32.69546 -116.85448 5950 ft 262 kts 253°
2026-04-23 05:43 32.68936 -116.87488 5532 ft 264 kts 253°
2026-04-23 05:44 32.68331 -116.89553 5149 ft 265 kts 253°
2026-04-23 05:44 32.67729 -116.91630 4749 ft 267 kts 253°
2026-04-23 05:44 32.67361 -116.93776 4308 ft 266 kts 273°
2026-04-23 05:44 32.67669 -116.95930 3932 ft 265 kts 285°
2026-04-23 05:45 32.68183 -116.98034 3536 ft 266 kts 288°
2026-04-23 05:45 32.68729 -117.00130 3171 ft 266 kts 287°
2026-04-23 05:45 32.69260 -117.02215 2926 ft 261 kts 287°
2026-04-23 05:45 32.69598 -117.03573 2784 ft 255 kts 287°
2026-04-23 05:46 32.70225 -117.06100 2623 ft 224 kts 287°
2026-04-23 05:46 32.70642 -117.07801 2389 ft 208 kts 287°
2026-04-23 05:46 32.70905 -117.08879 2140 ft 202 kts 286°
2026-04-23 05:46 32.71282 -117.10501 1637 ft 199 kts 287°
2026-04-23 05:47 32.71673 -117.12026 1247 ft 189 kts 287°
2026-04-23 05:47 32.72027 -117.13461 995 ft 172 kts 285°
2026-04-23 05:47 32.72335 -117.14754 694 ft 158 kts 285°
2026-04-23 05:47 32.72625 -117.15948 463 ft 142 kts 286°
2026-04-23 05:48 32.72893 -117.17070 238 ft 142 kts 285°
2026-04-23 05:48 32.73166 -117.18179 38 ft 138 kts 286°
2026-04-23 05:48 32.73385 -117.19083 20 ft 65 kts 286°
2026-04-23 05:48 32.73481 -117.19478 22 ft 45 kts 286°